Location: Palomar Mountain Lodge
(33.3110°N, 116.8495°W)
Time: 13:56:18
(UTC-07:00)

Cosmos 2369 Rocket - Pass Details

Date: 12 July 2018
Orbit: 829 x 852 km, 71.0° (Epoch: 17 September)

Event Time Altitude Azimuth Distance (km) Brightness Sun altitude
Rises 20:59:34 0° 214° (SW) 3,381 5.3 -11.7°
Reaches altitude 10° 21:02:06 10° 220° (SW) 2,446 4.7 -12.1°
Maximum altitude 21:07:29 47° 294° (WNW) 1,092 3.3 -13.0°
Drops below altitude 10° 21:12:53 10° 8° (N) 2,444 5.0 -13.9°
Sets 21:15:25 0° 14° (NNE) 3,378 5.7 -14.3°
